Eagle, AK

4:15 AM AKST on December 14, 2019 (GMT -0900)
Eagle

Weather History for PAEG - October, 2019

Change the Weather History Date:

Saturday, October 19, 2019

  Actual Average (PABN) Record (PABN)
Temperature  
Mean Temperature 30 °F -  
Max Temperature 32 °F 22 °F 42 °F (2013)
Min Temperature 28 °F 13 °F 3 °F (1997)
Degree Days  
Heating Degree Days 35    
Moisture  
Dew Point 19 °F    
Average Humidity 64    
Maximum Humidity 75    
Minimum Humidity 59    
Precipitation  
Precipitation 0.00 in - - ()
Sea Level Pressure  
Sea Level Pressure 29.61 in    
Wind  
Wind Speed 3 mph (East)    
Max Wind Speed 6 mph    
Max Gust Speed -    
Visibility 10 miles    
Events Snow    
Averages and records for this station are not official NWS values.
T = Trace of Precipitation, MM = Missing Value Source: NWS Daily Summary

Daily Weather History Graph

Daily Weather History Graph

Search for Another Location

Airport or City:

Astronomy

Oct. 19, 2019 Rise Set
Actual Time 8:29 AM AKDT 5:48 PM AKDT
Civil Twilight 7:38 AM AKDT 6:39 PM AKDT
Nautical Twilight 6:41 AM AKDT 7:35 PM AKDT
Astronomical Twilight 5:44 AM AKDT 8:32 PM AKDT
Moon 7:58 PM AKDT (10/19) 4:16 PM AKDT (10/19)
Length of Visible Light 11h 00m
Length of Day
9h 19m
Waning Gibbous, 68% of the Moon is Illuminated
Oct 19
Waning Gibbous
Oct 21
Last Quarter
Oct 27
New
Nov 4
First Quarter
Nov 12
Full

Hourly Weather History & Observations

Time (AKDT) Temp. Windchill Dew Point Humidity Pressure Visibility Wind Dir Wind Speed Gust Speed Precip Events Conditions
12:53 AM 30.0 °F 26.5 °F 19.0 °F 64% 29.54 in 10.0 mi East 3.5 mph - N/A   Overcast
1:53 AM 30.0 °F 26.5 °F 19.0 °F 64% 29.54 in 10.0 mi Variable 3.5 mph - N/A   Overcast
3:53 AM 28.9 °F 23.9 °F 19.0 °F 67% 29.55 in 10.0 mi ENE 4.6 mph - N/A   Overcast
4:53 AM 28.9 °F 25.2 °F 19.0 °F 67% 29.56 in 10.0 mi Variable 3.5 mph - N/A   Overcast
5:53 AM 28.9 °F 23.9 °F 19.0 °F 67% 29.57 in 10.0 mi ESE 4.6 mph - N/A   Overcast
6:53 AM 28.9 °F 25.2 °F 19.9 °F 69% 29.58 in 10.0 mi East 3.5 mph - N/A   Overcast
7:53 AM 28.0 °F - 19.9 °F 72% 29.59 in 5.0 mi Calm Calm - 0.00 in Snow Light Snow
9:53 AM 28.0 °F 21.7 °F 19.9 °F 72% 29.60 in 6.0 mi ENE 5.8 mph - N/A   Haze
10:53 AM 28.0 °F 22.8 °F 21.0 °F 75% 29.61 in 6.0 mi Variable 4.6 mph - N/A   Haze
11:53 AM 30.0 °F 25.2 °F 21.0 °F 69% 29.62 in 10.0 mi Variable 4.6 mph - N/A   Overcast
12:53 PM 30.9 °F 25.2 °F 19.0 °F 61% 29.62 in 10.0 mi Variable 5.8 mph - N/A   Overcast
1:53 PM 30.9 °F 26.2 °F 19.0 °F 61% 29.62 in 10.0 mi East 4.6 mph - N/A   Overcast
2:15 PM 32.0 °F 27.5 °F 19.0 °F 59% 29.59 in 10.0 mi East 4.6 mph - N/A   Overcast
2:53 PM 32.0 °F 28.7 °F 19.0 °F 59% 29.63 in 10.0 mi Variable 3.5 mph - N/A   Overcast
3:53 PM 32.0 °F 28.7 °F 19.0 °F 59% 29.63 in 10.0 mi East 3.5 mph - N/A   Overcast
4:53 PM 32.0 °F - 19.9 °F 61% 29.63 in 10.0 mi Calm Calm - N/A   Overcast
5:53 PM 32.0 °F 27.5 °F 19.0 °F 59% 29.63 in 10.0 mi East 4.6 mph - N/A   Overcast
6:27 PM 32.0 °F 28.7 °F 19.9 °F 61% 29.60 in 10.0 mi ESE 3.5 mph - N/A   Overcast
6:53 PM 30.9 °F - 19.9 °F 64% 29.64 in 10.0 mi Calm Calm - N/A   Overcast
7:53 PM 30.9 °F 27.5 °F 19.9 °F 64% 29.65 in 10.0 mi ESE 3.5 mph - N/A   Overcast
8:14 PM 30.9 °F - 19.9 °F 64% 29.62 in 10.0 mi Calm Calm - N/A   Overcast
8:37 PM 30.9 °F - 19.0 °F 61% 29.62 in 10.0 mi Calm Calm - N/A   Overcast
8:53 PM 30.9 °F - 19.0 °F 61% 29.65 in 10.0 mi Calm Calm - N/A   Overcast
9:53 PM 30.9 °F 26.2 °F 19.0 °F 61% 29.66 in 10.0 mi Variable 4.6 mph - N/A   Overcast
10:53 PM 30.9 °F 26.2 °F 19.0 °F 61% 29.67 in 10.0 mi East 4.6 mph - N/A   Overcast
11:53 PM 30.9 °F 26.2 °F 19.0 °F 61% 29.68 in 10.0 mi Variable 4.6 mph - N/A   Overcast